This is the latest recevied weather packets stored in our database for station/object VA3WWD-2. If no packets are shown the sender has not sent any weather packets the latest 10 day(s).
| Time | Temp. | Humidity | Pressure | Rain* | Wind** | Luminosity | Snow |
|---|---|---|---|---|---|---|---|
| 1777587599 | 6.11° C | 36% | - | 0 mm | 0 m/s | - | - |
| 1777587301 | 6.67° C | 35% | - | 0 mm | 0 m/s | - | - |
| 1777587003 | 6.11° C | 37% | - | 0 mm | 0 m/s | - | - |
| 1777586702 | 6.11° C | 35% | - | 0 mm | 0 m/s | - | - |
| 1777586404 | 6.11° C | 34% | - | 0 mm | 0 m/s | - | - |
| 1777586106 | 6.67° C | 37% | - | 0 mm | 0 m/s | - | - |
| 1777585805 | 6.67° C | 34% | - | 0 mm | 0 m/s | - | - |
| 1777585507 | 7.22° C | 33% | - | 0 mm | 0 m/s | - | - |
| 1777585209 | 6.67° C | 34% | - | 0 mm | 0 m/s | - | - |
| 1777584908 | 7.22° C | 36% | - | 0 mm | 0 m/s | - | - |
| 1777584313 | 6.67° C | 35% | - | 0 mm | 0 m/s | - | - |
| 1777584012 | 6.67° C | 33% | - | 0 mm | 0 m/s | - | - |
| 1777583714 | 8.33° C | 31% | - | 0 mm | 0 m/s | - | - |
| 1777583416 | 7.22° C | 34% | - | 0 mm | 0 m/s | - | - |
| 1777583115 | 7.78° C | 30% | - | 0 mm | 0 m/s | - | - |
| 1777582817 | 8.33° C | 31% | - | 0 mm | 0 m/s | - | - |
| 1777582519 | 8.89° C | 31% | - | 0 mm | 0 m/s | - | - |
| 1777582218 | 8.89° C | 30% | - | 0 mm | 0 m/s | - | - |
| 1777581622 | 8.33° C | 36% | - | 0 mm | 0 m/s | - | - |
| 1777581321 | 7.78° C | 31% | - | 0 mm | 0 m/s | - | - |
| 1777581023 | 8.33° C | 33% | - | 0 mm | 0 m/s | - | - |
| 1777580725 | 7.78° C | 32% | - | 0 mm | 0 m/s | - | - |
| 1777580424 | 8.33° C | 32% | - | 0 mm | 0 m/s | - | - |
| 1777579828 | 7.78° C | 33% | - | 0 mm | 0 m/s | - | - |
| 1777579527 | 8.33° C | 33% | - | 0 mm | 0 m/s | - | - |
* Rain latest hour (hover to see other rain measurements)
** Current wind speed in m/s (hover to see current wind gust speed)